sat.trackr.live / text

‹ back to catalog

STARLINK-35545

NORAD 66109 · 2025-236Z

PAYLOAD ACTIVE UNKNOWN

§ Identity

Operator
Country
US
Launch date
2025-10-19
Launch site
AFWTR
Launch vehicle
Mass (kg)
RCS (m²)

Purposes: comms

External: N2YO · Heavens-Above · Gunter

§ Orbital elements

Epoch: 2026-05-25T03:56:48.067008Z

Period
94.10 min
Inclination
53.1592°
Eccentricity
0.0001486
Mean motion
15.30217542 rev/d
Perigee alt
474.1 km
Apogee alt
476.2 km
Semi-major
6,853.3 km
B*
8.5413e-4
RAAN
108.6217°
Arg perigee
79.7463°
Mean anomaly
280.3705°
Rev number
3,465

§ Raw data

STARLINK-355451 66109U 25236Z   26145.16444522  .00025037  00000+0  85413-3 0  99962 66109  53.1592 108.6217 0001486  79.7463 280.3705 15.30217542 34652

JSON: /api/v1/satellites/66109 · /tle

For live sub-satellite position, see the globe view (requires WebGL).

§ Visibility from observer

Set your observer location to see the next 7 days of passes ≥ 10°. The values pass through the URL so the page stays shareable.

No JS? Fill the form by hand. The geolocation button needs JavaScript.